Flag for Micronesia Weather past 2 weeks in Kolonia, Ponape, Micronesia

Now
85 °F

Cloudy.


Feels Like: 95 °F
Forecast: 77 / 88 °F
Wind: 9 mph from Southwest

Location: Pohnpei

Current Time: Sep 21, 2014 at 2:02:26 PM

Latest Report: Sep 21, 2014 at 12:52 PM


Visibility: 15 mi

Pressure: 29.81 "Hg

Humidity: 77%

Dew point: 77 °F

Location of KoloniaLocation

Historic Weather in Kolonia — Graph

°F

Kolonia temperature yesterday

Maximum temperature yesterday: 87 °F (at 12:50 PM)
Minimum temperature yesterday: 76 °F (at 5:55 AM)
Average temperature yesterday: 80 °F

Past Weeks' High & Low Weather Summary

 TemperatureHumidityPressure
High92 °F (Sep 11, 10:54 AM)100% (Sep 14, 3:50 AM)29.92 "Hg (Sep 14, 3:50 AM)
Low73 °F (Sep 10, 5:52 AM)61% (Sep 14, 10:57 AM)29.76 "Hg (Sep 19, 2:50 PM)
Average81 °F87%29.84 "Hg
* Reported Sep 6 12:53 PM — Sep 21 12:52 PM, Kolonia, Weather by CustomWeather, © 2014

Note: Actual official high and low records may vary slightly from our data, if they occured in-between our weather recording intervals... More about our weather records

Advertising

Kolonia weather history for previous 24 hours

 ConditionsComfort  
Time TempWeatherWind HumidityBarometerVisibility
12:52 PM
Sep 21
85 °FCloudy.9 mph77%29.81 "Hg15 mi
11:52 AM86 °FCloudy.7 mph73%29.83 "Hg15 mi
10:54 AM86 °FMore clouds than sun.3 mph77%29.85 "Hg15 mi
9:50 AM85 °FBroken clouds.3 mph76%29.86 "Hg15 mi
8:53 AM80 °FCloudy.3 mph92%29.85 "Hg15 mi
7:53 AM77 °FMostly cloudy.3 mph95%29.83 "Hg15 mi
6:52 AM75 °FSprinkles. Mostly cloudy.3 mph95%29.81 "Hg12 mi
5:51 AM75 °FSprinkles. Mostly cloudy.5 mph95%29.82 "Hg12 mi
4:53 AM75 °FSprinkles. Mostly cloudy.3 mph95%29.80 "Hg12 mi
11:54 PM
Sep 20
77 °FClear.3 mph96%29.83 "Hg15 mi
10:53 PM77 °FPassing clouds.5 mph96%29.85 "Hg15 mi
9:50 PM77 °FPassing clouds.3 mph96%29.85 "Hg15 mi
8:52 PM78 °FPassing clouds.3 mph94%29.84 "Hg15 mi
7:52 PM79 °FPassing clouds.5 mph92%29.82 "Hg15 mi
6:53 PM81 °FPassing clouds.3 mph89%29.80 "Hg15 mi
5:52 PM83 °FScattered clouds.6 mph83%29.78 "Hg15 mi
4:54 PM85 °FBroken clouds.6 mph80%29.77 "Hg15 mi
3:50 PM81 °FBroken clouds.3 mph83%29.76 "Hg15 mi
2:50 PM83 °FMostly cloudy.5 mph77%29.77 "Hg15 mi
Weather by CustomWeather, © 2014

See weather overviewHow to use our weather pages